Change the Weather History Date:

Friday, September 7, 2012

  Actual Average Record
Temperature  
Mean Temperature 49 °F -  
Max Temperature 61 °F 63 °F 74 °F (1977)
Min Temperature 37 °F 33 °F 25 °F (2010)
Degree Days  
Heating Degree Days 16 17  
Month to date heating degree days 97 111  
Since 1 July heating degree days 667 833  
Cooling Degree Days 0 0  
Month to date cooling degree days 0 0  
Year to date cooling degree days 0 0  
Growing Degree Days 2 (Base 50)    
Moisture  
Dew Point 36 °F    
Average Humidity 66    
Maximum Humidity 96    
Minimum Humidity 35    
Precipitation  
Precipitation 0.10 in 0.04 in 0.76 in (2011)
Month to date precipitation 0.22 0.32  
Year to date precipitation 8.67 9.27  
Snow  
Snow 0.00 in - - ()
Month to date snowfall 0.0  
Snow Depth 0.00 in    
Sea Level Pressure  
Sea Level Pressure 30.05 in    
Wind  
Wind Speed 7 mph (NNW)    
Max Wind Speed 28 mph    
Max Gust Speed 37 mph    
Visibility 10 miles    
Events Rain    
T = Trace of Precipitation, MM = Missing Value Source: NWS Daily Summary

Daily Weather History Graph

Daily Weather History Graph

Search for Another Location

Airport or City:

Trip Planner

Search our weather history database for the weather conditions in past years. The results will help you decide how hot, cold, wet, or windy it might be!

Date:

Astronomy

Sep. 07, 2012 Rise Set
Actual Time 6:39 AM MDT 7:25 PM MDT
Civil Twilight 6:12 AM MDT 7:52 PM MDT
Nautical Twilight 5:40 AM MDT 8:24 PM MDT
Astronomical Twilight 5:07 AM MDT 8:57 PM MDT
Moon 11:26 PM MDT (9/7) 1:31 PM MDT (9/7)
Length of Visible Light 13h 40m
Length of Day
12h 45m
Waning Gibbous, 58% of the Moon is Illuminated
Sep 7
Waning Gibbous
Sep 8
Last Quarter
Sep 15
New
Sep 22
First Quarter
Sep 29
Full

Hourly Weather History & Observations

Time (MDT) Temp. Windchill Dew Point Humidity Pressure Visibility Wind Dir Wind Speed Gust Speed Precip Events Conditions
12:53 AM 52.0 °F - 33.1 °F 49% 29.89 in 10.0 mi WNW 8.1 mph - N/A   Overcast
1:53 AM 51.1 °F - 36.0 °F 56% 29.92 in 10.0 mi NW 8.1 mph - N/A   Overcast
2:53 AM 48.0 °F - 39.9 °F 74% 29.93 in 10.0 mi NW 10.4 mph - 0.00 in Rain Light Rain
3:53 AM 44.1 °F 39.5 °F 43.0 °F 96% 29.96 in 7.0 mi North 8.1 mph - 0.06 in Rain Light Rain
4:53 AM 43.0 °F 40.3 °F 39.9 °F 89% 29.92 in 10.0 mi ENE 4.6 mph - 0.04 in   Overcast
5:53 AM 43.0 °F - 39.9 °F 89% 29.95 in 10.0 mi Calm Calm - N/A   Mostly Cloudy
6:53 AM 43.0 °F 41.3 °F 41.0 °F 93% 29.96 in 10.0 mi North 3.5 mph - N/A   Scattered Clouds
7:53 AM 46.9 °F - 42.1 °F 83% 30.00 in 10.0 mi NNE 5.8 mph - N/A   Scattered Clouds
8:53 AM 50.0 °F - 42.1 °F 74% 30.03 in 10.0 mi North 4.6 mph - N/A   Mostly Cloudy
9:53 AM 53.1 °F - 42.1 °F 66% 30.02 in 10.0 mi Variable 3.5 mph - N/A   Mostly Cloudy
10:53 AM 53.1 °F - 41.0 °F 64% 30.08 in 10.0 mi WNW 6.9 mph - N/A   Overcast
11:53 AM 55.9 °F - 36.0 °F 47% 30.04 in 10.0 mi WNW 11.5 mph 18.4 mph N/A   Clear
12:53 PM 59.0 °F - 34.0 °F 39% 29.99 in 10.0 mi NW 17.3 mph 23.0 mph N/A   Scattered Clouds
1:53 PM 60.1 °F - 34.0 °F 38% 29.98 in 10.0 mi NW 10.4 mph 24.2 mph N/A   Overcast
2:53 PM 61.0 °F - 34.0 °F 36% 29.98 in 10.0 mi WNW 9.2 mph 19.6 mph N/A   Mostly Cloudy
3:16 PM 53.6 °F - 37.4 °F 54% 30.49 in 10.0 mi North 27.6 mph 36.8 mph N/A   Overcast
3:53 PM 57.0 °F - 36.0 °F 45% 30.05 in 10.0 mi North 16.1 mph 24.2 mph 0.00 in   Mostly Cloudy
4:53 PM 57.0 °F - 30.9 °F 37% 30.07 in 10.0 mi NNW 17.3 mph 34.5 mph 0.00 in Rain Light Rain
5:53 PM 57.0 °F - 33.1 °F 40% 30.06 in 10.0 mi North 8.1 mph - 0.00 in   Scattered Clouds
6:53 PM 55.0 °F - 28.9 °F 37% 30.08 in 10.0 mi North 8.1 mph - N/A   Partly Cloudy
7:53 PM 52.0 °F - 28.0 °F 40% 30.09 in 10.0 mi NNE 8.1 mph - N/A   Clear
8:53 PM 50.0 °F - 28.0 °F 43% 30.12 in 10.0 mi ESE 3.5 mph - N/A   Scattered Clouds
9:53 PM 46.9 °F - 35.1 °F 63% 30.15 in 10.0 mi Calm Calm - N/A   Mostly Cloudy
10:53 PM 44.1 °F 42.5 °F 36.0 °F 73% 30.17 in 10.0 mi South 3.5 mph - N/A   Mostly Cloudy
11:53 PM 39.9 °F - 34.0 °F 79% 30.20 in 10.0 mi Calm Calm - N/A   Clear